�������l�o���
Date,Time,MP-1(��Sv/h),MP-2(��Sv/h),MP-3(��Sv/h),MP-4(��Sv/h),MP-5(��Sv/h),MP-6(��Sv/h),MP-7(��Sv/h),MP-8(��Sv/h),����,����(m/s),���J
2022/04/21,00:00,0.571,0.848,0.543,1.024,0.727,0.346,0.596,0.563,��쐼,8.4,��
2022/04/21,00:10,0.571,0.848,0.542,1.028,0.729,0.347,0.597,0.565,��쐼,8.2,��
2022/04/21,00:20,0.571,0.849,0.543,1.025,0.729,0.346,0.599,0.564,��쐼,7.6,��
2022/04/21,00:30,0.570,0.849,0.543,1.025,0.728,0.345,0.596,0.563,��쐼,7.3,��
2022/04/21,00:40,0.572,0.850,0.545,1.025,0.730,0.346,0.597,0.562,��쐼,6.5,��
2022/04/21,00:50,0.572,0.848,0.543,1.024,0.728,0.345,0.598,0.563,��쐼,6.5,��
2022/04/21,01:00,0.573,0.849,0.545,1.026,0.727,0.348,0.597,0.563,��,6.5,��
2022/04/21,01:10,0.572,0.849,0.544,1.023,0.727,0.347,0.598,0.565,��,9.0,��
2022/04/21,01:20,0.571,0.848,0.544,1.027,0.727,0.346,0.596,0.565,��,9.4,��
2022/04/21,01:30,0.571,0.848,0.543,1.026,0.726,0.346,0.595,0.564,��쐼,8.8,��
2022/04/21,01:40,0.571,0.847,0.544,1.024,0.728,0.347,0.598,0.563,��,9.0,��
2022/04/21,01:50,0.573,0.849,0.544,1.022,0.730,0.346,0.598,0.564,��,9.4,��
2022/04/21,02:00,0.573,0.848,0.543,1.025,0.727,0.346,0.596,0.562,��,10.2,��
2022/04/21,02:10,0.571,0.850,0.544,1.025,0.728,0.346,0.596,0.564,��쐼,10.2,��
2022/04/21,02:20,0.572,0.848,0.543,1.026,0.728,0.347,0.597,0.565,��,9.4,��
2022/04/21,02:30,0.572,0.850,0.544,1.023,0.728,0.345,0.596,0.564,��,7.6,��
2022/04/21,02:40,0.571,0.847,0.543,1.024,0.727,0.346,0.596,0.561,��,8.0,��
2022/04/21,02:50,0.571,0.847,0.543,1.027,0.729,0.345,0.597,0.564,��,7.5,��
2022/04/21,03:00,0.572,0.847,0.543,1.024,0.727,0.344,0.597,0.564,��쐼,7.8,��
2022/04/21,03:10,0.571,0.849,0.544,1.026,0.728,0.347,0.596,0.564,��쐼,7.0,��
2022/04/21,03:20,0.571,0.849,0.543,1.024,0.726,0.345,0.595,0.563,��쐼,6.2,��
2022/04/21,03:30,0.572,0.847,0.545,1.025,0.727,0.346,0.597,0.562,��쐼,5.1,��
2022/04/21,03:40,0.571,0.848,0.543,1.024,0.728,0.346,0.596,0.563,��쐼,4.5,��
2022/04/21,03:50,0.570,0.849,0.542,1.026,0.728,0.345,0.598,0.562,��쐼,4.3,��
2022/04/21,04:00,0.571,0.847,0.543,1.025,0.728,0.346,0.596,0.563,��쐼,5.5,��
2022/04/21,04:10,0.572,0.847,0.542,1.024,0.728,0.346,0.597,0.565,��쐼,5.3,��
2022/04/21,04:20,0.571,0.846,0.544,1.026,0.726,0.346,0.596,0.563,��쐼,5.2,��
2022/04/21,04:30,0.570,0.846,0.542,1.028,0.726,0.346,0.596,0.564,��쐼,4.2,��
2022/04/21,04:40,0.572,0.844,0.543,1.025,0.728,0.345,0.595,0.565,��쐼,3.2,��
2022/04/21,04:50,0.573,0.849,0.542,1.023,0.727,0.345,0.596,0.563,��쐼,2.9,��
2022/04/21,05:00,0.570,0.845,0.543,1.024,0.726,0.346,0.594,0.563,��쐼,3.9,��
2022/04/21,05:10,0.570,0.847,0.543,1.024,0.725,0.345,0.595,0.563,��,4.9,��
2022/04/21,05:20,0.571,0.847,0.542,1.026,0.728,0.345,0.597,0.563,��쐼,4.5,��
2022/04/21,05:30,0.571,0.845,0.542,1.026,0.727,0.347,0.596,0.564,��쐼,5.2,��
2022/04/21,05:40,0.570,0.847,0.543,1.023,0.727,0.345,0.596,0.563,��,6.0,��
2022/04/21,05:50,0.571,0.846,0.544,1.024,0.728,0.345,0.595,0.564,��쐼,5.8,��
2022/04/21,06:00,0.572,0.846,0.541,1.023,0.728,0.346,0.598,0.564,��,5.1,��
2022/04/21,06:10,0.572,0.848,0.542,1.024,0.726,0.346,0.595,0.563,��쐼,5.7,��
2022/04/21,06:20,0.571,0.847,0.544,1.026,0.726,0.345,0.596,0.563,��쐼,6.9,��
2022/04/21,06:30,0.572,0.847,0.544,1.024,0.727,0.346,0.597,0.565,�쐼,5.0,��
2022/04/21,06:40,0.572,0.848,0.544,1.025,0.727,0.347,0.597,0.564,�쐼,3.6,��
2022/04/21,06:50,0.572,0.848,0.545,1.024,0.729,0.346,0.598,0.564,��쐼,2.3,��
2022/04/21,07:00,0.573,0.848,0.545,1.027,0.728,0.346,0.596,0.563,��,2.2,��
2022/04/21,07:10,0.573,0.848,0.546,1.026,0.728,0.345,0.598,0.563,��쐼,1.2,��
2022/04/21,07:20,0.572,0.846,0.543,1.025,0.729,0.345,0.598,0.564,��,2.0,��
2022/04/21,07:30,0.574,0.845,0.542,1.024,0.729,0.344,0.597,0.564,��쐼,2.3,��
2022/04/21,07:40,0.573,0.845,0.544,1.027,0.728,0.345,0.597,0.563,��쓌,1.2,��
2022/04/21,07:50,0.572,0.848,0.543,1.025,0.729,0.343,0.596,0.564,��쓌,1.7,��
2022/04/21,08:00,0.572,0.846,0.544,1.026,0.729,0.343,0.598,0.564,��쓌,1.9,��
2022/04/21,08:10,0.573,0.846,0.544,1.026,0.729,0.344,0.594,0.564,�쓌,1.9,��
2022/04/21,08:20,0.571,0.843,0.545,1.026,0.728,0.345,0.596,0.564,��쓌,2.5,��
2022/04/21,08:30,0.573,0.843,0.543,1.027,0.728,0.344,0.593,0.563,��쓌,3.1,��
2022/04/21,08:40,0.572,0.845,0.545,1.027,0.729,0.343,0.594,0.562,��쓌,3.6,��
2022/04/21,08:50,0.573,0.845,0.545,1.029,0.728,0.345,0.596,0.563,��쓌,4.5,��
2022/04/21,09:00,0.574,0.844,0.545,1.028,0.727,0.345,0.595,0.562,��쓌,6.9,��
2022/04/21,09:10,0.572,0.846,0.544,1.027,0.731,0.345,0.596,0.561,��쓌,7.6,��
2022/04/21,09:20,0.572,0.844,0.544,1.027,0.727,0.344,0.596,0.562,��쓌,8.0,��
2022/04/21,09:30,0.574,0.844,0.544,1.028,0.730,0.343,0.596,0.562,��,10.0,��
2022/04/21,09:40,0.573,0.845,0.545,1.029,0.727,0.345,0.596,0.562,��쓌,9.6,��
2022/04/21,09:50,0.573,0.845,0.543,1.027,0.728,0.345,0.597,0.562,��쓌,9.6,��
2022/04/21,10:00,0.572,0.846,0.544,1.028,0.728,0.345,0.595,0.561,��쓌,12.1,��
2022/04/21,10:10,0.573,0.845,0.543,1.028,0.728,0.345,0.596,0.563,��쓌,10.7,��
2022/04/21,10:20,0.574,0.844,0.543,1.028,0.728,0.346,0.597,0.562,��쓌,10.7,��
2022/04/21,10:30,0.573,0.846,0.544,1.031,0.729,0.346,0.597,0.563,��쓌,12.7,��
2022/04/21,10:40,0.574,0.846,0.541,1.029,0.730,0.345,0.596,0.563,-,-,��
2022/04/21,10:50,0.572,0.847,0.542,1.029,0.727,0.344,0.597,0.564,-,-,-
2022/04/21,11:00,0.573,0.847,0.543,1.026,0.728,0.344,0.597,0.563,-,-,-
2022/04/21,11:10,0.574,0.846,0.544,1.029,0.730,0.345,0.598,0.565,-,-,-
2022/04/21,11:20,0.573,0.846,0.542,1.028,0.729,0.346,0.597,0.563,-,-,-
2022/04/21,11:30,0.574,0.847,0.543,1.024,0.731,0.345,0.596,0.564,-,-,-
2022/04/21,11:40,0.572,0.847,0.542,1.028,0.728,0.346,0.597,0.564,-,-,-
2022/04/21,11:50,0.574,0.849,0.543,1.027,0.732,0.346,0.597,0.563,-,-,-
2022/04/21,12:00,0.571,0.851,0.544,1.025,0.730,0.346,0.597,0.564,-,-,-
2022/04/21,12:10,0.573,0.852,0.544,1.028,0.731,0.345,0.596,0.565,-,-,-
2022/04/21,12:20,0.573,0.850,0.542,1.028,0.730,0.345,0.598,0.564,-,-,-
2022/04/21,12:30,0.574,0.851,0.544,1.028,0.732,0.344,0.598,0.563,-,-,-
2022/04/21,12:40,0.573,0.852,0.545,1.028,0.730,0.345,0.597,0.563,-,-,-
2022/04/21,12:50,0.574,0.850,0.544,1.028,0.731,0.347,0.596,0.564,-,-,-
2022/04/21,13:00,0.573,0.849,0.545,1.029,0.732,0.346,0.598,0.563,-,-,-
2022/04/21,13:10,0.573,0.848,0.546,1.028,0.733,0.346,0.596,0.565,-,-,-
2022/04/21,13:20,0.574,0.847,0.544,1.031,0.731,0.346,0.596,0.563,-,-,-
2022/04/21,13:30,0.574,0.849,0.545,1.028,0.733,0.344,0.598,0.565,-,-,-
2022/04/21,13:40,0.574,0.849,0.544,1.029,0.731,0.347,0.598,0.564,-,-,-
2022/04/21,13:50,0.572,0.850,0.546,1.029,0.733,0.348,0.596,0.564,-,-,-
2022/04/21,14:00,0.574,0.849,0.545,1.030,0.732,0.345,0.596,0.564,��쓌,13.5,-
2022/04/21,14:10,0.573,0.849,0.545,1.033,0.730,0.346,0.597,0.564,��쓌,14.6,��
2022/04/21,14:20,0.574,0.850,0.544,1.029,0.731,0.347,0.597,0.566,��쓌,12.2,��
2022/04/21,14:30,0.575,0.849,0.544,1.030,0.734,0.346,0.599,0.564,��쓌,11.9,��
2022/04/21,14:40,0.574,0.848,0.546,1.030,0.733,0.346,0.597,0.564,��쓌,11.6,��
2022/04/21,14:50,0.575,0.851,0.544,1.029,0.732,0.346,0.597,0.565,��쓌,13.0,��
2022/04/21,15:00,0.573,0.848,0.544,1.031,0.733,0.347,0.597,0.564,��쓌,11.3,��
2022/04/21,15:10,0.574,0.850,0.543,1.032,0.731,0.347,0.598,0.563,��,11.0,��
2022/04/21,15:20,0.572,0.852,0.543,1.031,0.731,0.346,0.597,0.565,��쓌,13.5,��
2022/04/21,15:30,0.575,0.849,0.545,1.032,0.733,0.346,0.597,0.564,��,10.9,��
2022/04/21,15:40,0.574,0.849,0.545,1.031,0.731,0.346,0.597,0.564,��,11.4,��
2022/04/21,15:50,0.572,0.851,0.544,1.030,0.731,0.348,0.597,0.565,��,9.9,��
2022/04/21,16:00,0.573,0.850,0.545,1.030,0.733,0.346,0.598,0.564,��쓌,12.4,��
2022/04/21,16:10,0.572,0.852,0.544,1.031,0.733,0.347,0.598,0.564,��쓌,12.7,��
2022/04/21,16:20,0.574,0.851,0.545,1.032,0.733,0.347,0.597,0.565,��,13.2,��
2022/04/21,16:30,0.575,0.850,0.544,1.031,0.730,0.345,0.597,0.565,��쓌,11.1,��
2022/04/21,16:40,0.572,0.850,0.544,1.032,0.733,0.346,0.598,0.563,��,11.1,��
2022/04/21,16:50,0.574,0.851,0.545,1.032,0.732,0.346,0.598,0.564,��,12.7,��
2022/04/21,17:00,0.574,0.850,0.543,1.032,0.732,0.346,0.597,0.566,��,10.7,��
2022/04/21,17:10,0.575,0.851,0.545,1.033,0.732,0.345,0.599,0.564,��,8.7,��
2022/04/21,17:20,0.573,0.853,0.543,1.031,0.730,0.345,0.598,0.565,��,8.6,��
2022/04/21,17:30,0.573,0.852,0.544,1.033,0.732,0.346,0.599,0.564,��,8.9,��
2022/04/21,17:40,0.573,0.851,0.546,1.031,0.732,0.345,0.595,0.565,��,9.8,��
2022/04/21,17:50,0.574,0.853,0.546,1.035,0.733,0.347,0.597,0.565,��,8.3,��
2022/04/21,18:00,0.575,0.851,0.546,1.034,0.732,0.347,0.597,0.564,��쓌,11.6,��
2022/04/21,18:10,0.575,0.852,0.545,1.032,0.733,0.346,0.597,0.564,��쓌,12.4,��
2022/04/21,18:20,0.574,0.854,0.545,1.034,0.730,0.347,0.599,0.568,��쓌,11.8,��
2022/04/21,18:30,0.576,0.853,0.548,1.032,0.732,0.348,0.598,0.567,��,9.9,��
2022/04/21,18:40,0.576,0.852,0.546,1.033,0.732,0.348,0.599,0.567,��,8.0,��
2022/04/21,18:50,0.576,0.853,0.548,1.033,0.732,0.347,0.601,0.567,��쐼,7.9,��
2022/04/21,19:00,0.576,0.855,0.548,1.033,0.731,0.347,0.597,0.567,��,7.5,��
2022/04/21,19:10,0.577,0.852,0.548,1.033,0.733,0.349,0.597,0.566,��,7.1,��
2022/04/21,19:20,0.576,0.853,0.549,1.031,0.732,0.348,0.598,0.566,��,7.3,��
2022/04/21,19:30,0.578,0.854,0.549,1.032,0.734,0.348,0.601,0.566,��,6.6,��
2022/04/21,19:40,0.578,0.856,0.547,1.033,0.734,0.349,0.600,0.568,��,7.2,��
2022/04/21,19:50,0.576,0.856,0.546,1.035,0.734,0.347,0.599,0.567,��,7.3,��
2022/04/21,20:00,0.577,0.854,0.547,1.033,0.734,0.347,0.599,0.567,��,8.7,��
2022/04/21,20:10,0.577,0.854,0.547,1.034,0.731,0.347,0.600,0.566,��,9.2,��
2022/04/21,20:20,0.576,0.853,0.548,1.031,0.734,0.347,0.599,0.566,��,6.9,��
2022/04/21,20:30,0.576,0.856,0.547,1.033,0.733,0.345,0.599,0.567,��,6.9,��
2022/04/21,20:40,0.576,0.856,0.547,1.033,0.733,0.348,0.599,0.569,��,8.5,��
2022/04/21,20:50,0.577,0.857,0.548,1.031,0.733,0.349,0.601,0.567,��,8.1,��
2022/04/21,21:00,0.575,0.855,0.547,1.035,0.734,0.347,0.599,0.567,��,8.2,��
2022/04/21,21:10,0.577,0.857,0.547,1.031,0.734,0.346,0.598,0.566,��,7.6,��
2022/04/21,21:20,0.575,0.857,0.547,1.033,0.732,0.346,0.601,0.566,��,8.2,��
2022/04/21,21:30,0.575,0.857,0.549,1.033,0.733,0.347,0.600,0.567,��,10.9,�L
2022/04/21,21:40,0.577,0.854,0.547,1.030,0.732,0.345,0.599,0.568,��,11.6,�L
2022/04/21,21:50,0.576,0.853,0.548,1.034,0.731,0.348,0.600,0.567,��,10.9,�L
2022/04/21,22:00,0.578,0.853,0.548,1.032,0.734,0.348,0.600,0.565,��,11.0,�L
2022/04/21,22:10,0.577,0.853,0.549,1.035,0.731,0.349,0.599,0.566,��,7.7,�L
2022/04/21,22:20,0.576,0.853,0.548,1.031,0.733,0.349,0.599,0.567,��,8.4,�L
2022/04/21,22:30,0.575,0.851,0.547,1.033,0.732,0.349,0.599,0.566,��,7.1,�L
2022/04/21,22:40,0.575,0.849,0.546,1.034,0.732,0.349,0.598,0.565,��,6.3,�L
2022/04/21,22:50,0.573,0.849,0.546,1.033,0.729,0.349,0.597,0.565,��쐼,7.0,�L
2022/04/21,23:00,0.577,0.848,0.547,1.029,0.730,0.349,0.597,0.564,��쐼,7.9,�L
2022/04/21,23:10,0.574,0.846,0.546,1.032,0.727,0.349,0.598,0.566,��쐼,6.3,�L
2022/04/21,23:20,0.575,0.849,0.545,1.030,0.726,0.350,0.596,0.563,��쐼,5.1,�L
2022/04/21,23:30,0.574,0.847,0.545,1.029,0.727,0.350,0.596,0.563,�쐼,4.1,�L
2022/04/21,23:40,0.573,0.843,0.546,1.027,0.724,0.350,0.595,0.564,�쐼,4.3,�L
2022/04/21,23:50,0.572,0.844,0.544,1.029,0.723,0.349,0.594,0.563,�쐼,4.0,�L
